GW6388 Weather Reports


time (UTC)temp
C
wind
direction
speed
KPH
gust
KPH
rain 1hr
cm
rain 24hr
cm
rain mn
cm
humidity
%
barometer
mb
20260504030959 6 0 0.0 0.0 0.00 0.00 0.00 71 1096.2
20260504030456 6 17 0.0 0.0 0.00 0.00 0.00 72 1096.1
20260504025951 6 335 0.0 0.0 0.00 0.00 0.00 75 1096.1
20260504025449 6 358 0.0 0.0 0.00 0.00 0.00 74 1096.2
20260504024946 6 14 0.0 0.0 0.00 0.00 0.00 74 1096.2
20260504024443 6 13 0.0 0.0 0.00 0.00 0.00 74 1096.1
20260504023940 6 12 0.0 0.0 0.00 0.00 0.00 72 1096.2
20260504023436 6 10 0.0 0.0 0.00 0.00 0.00 70 1096.4
20260504022932 7 17 0.0 0.0 0.00 0.00 0.00 67 1096.4
20260504022428 7 16 0.0 0.0 0.00 0.00 0.00 66 1096.4
20260504021925 7 28 0.0 0.0 0.00 0.00 0.00 69 1096.6
20260504021422 7 15 0.0 0.0 0.00 0.00 0.00 68 1096.3
20260504020920 7 351 0.0 0.0 0.00 0.00 0.00 65 1096.3
20260504020416 8 4 0.0 0.0 0.00 0.00 0.00 62 1096.3
20260504015913 8 17 0.0 0.0 0.00 0.00 0.00 60 1096.4
20260504015409 8 26 0.0 0.0 0.00 0.00 0.00 58 1096.2
20260504014905 8 25 0.0 0.0 0.00 0.00 0.00 58 1096.3
20260504014401 8 26 0.0 0.0 0.00 0.00 0.00 56 1096.3
20260504013858 9 14 0.0 0.0 0.00 0.00 0.00 56 1096.3
20260504013356 10 37 0.0 0.0 0.00 0.00 0.00 53 1096.3
20260504012853 10 37 0.0 0.0 0.00 0.00 0.00 53 1096.3
20260504012351 10 34 0.0 1.6 0.00 0.00 0.00 52 1096.2
20260504011848 10 34 0.0 0.0 0.00 0.00 0.00 52 1096.3
20260504011344 10 32 0.0 0.0 0.00 0.00 0.00 51 1096.3
20260504010840 11 30 0.0 0.0 0.00 0.00 0.00 53 1096.2
20260504010336 11 28 0.0 0.0 0.00 0.00 0.00 48 1096.1
20260504005833 11 27 0.0 1.6 0.00 0.00 0.00 48 1096.2
20260504005330 12 20 0.0 1.6 0.00 0.00 0.00 44 1096.4
20260504004827 12 358 0.0 1.6 0.00 0.00 0.00 44 1096.1
20260504004325 12 357 1.6 1.6 0.00 0.00 0.00 43 1096.0
20260504003821 12 332 3.2 3.2 0.00 0.00 0.00 43 1096.1
20260504003318 12 261 6.4 6.4 0.00 0.00 0.00 42 1095.9
20260504002814 12 222 3.2 4.8 0.00 0.00 0.00 42 1095.9
20260504002311 12 353 0.0 3.2 0.00 0.00 0.00 42 1096.1
20260504001809 12 17 1.6 4.8 0.00 0.00 0.00 42 1096.0
20260504001306 12 344 4.8 4.8 0.00 0.00 0.00 44 1096.1
20260504000803 13 0 3.2 4.8 0.00 0.00 0.00 41 1096.1
20260504000300 13 309 3.2 3.2 0.00 0.00 0.00 41 1096.0
20260503235758 13 244 4.8 4.8 0.00 0.00 0.00 41 1096.2
20260503235255 13 282 3.2 4.8 0.00 0.00 0.00 40 1096.2
20260503234753 13 219 6.4 6.4 0.00 0.00 0.00 40 1096.1
20260503234250 13 337 3.2 3.2 0.00 0.00 0.00 41 1096.0
20260503233747 13 14 3.2 6.4 0.00 0.00 0.00 40 1096.1
20260503233243 13 308 3.2 4.8 0.00 0.00 0.00 39 1096.0
20260503232740 13 171 3.2 9.7 0.00 0.00 0.00 39 1096.0
20260503232237 13 104 3.2 16.1 0.00 0.00 0.00 39 1096.1
20260503231736 13 245 4.8 6.4 0.00 0.00 0.00 38 1096.0
20260503231232 13 344 1.6 3.2 0.00 0.00 0.00 41 1096.1
20260503230728 14 16 0.0 9.7 0.00 0.00 0.00 38 1095.9
20260503230226 14 204 3.2 9.7 0.00 0.00 0.00 37 1096.2
20260503225723 14 317 4.8 11.3 0.00 0.00 0.00 37 1096.2
20260503225223 14 196 3.2 4.8 0.00 0.00 0.00 37 1096.0
20260503224720 14 284 4.8 11.3 0.00 0.00 0.00 37 1096.2
20260503224218 14 246 12.9 14.5 0.00 0.00 0.00 37 1096.2
20260503223715 14 28 1.6 6.4 0.00 0.00 0.00 38 1096.3
20260503223213 14 277 1.6 4.8 0.00 0.00 0.00 37 1096.1
20260503222709 14 36 1.6 4.8 0.00 0.00 0.00 39 1096.4
20260503222207 14 25 1.6 9.7 0.00 0.00 0.00 38 1096.2
20260503221705 14 316 3.2 6.4 0.00 0.00 0.00 36 1096.3
20260503221202 15 210 3.2 4.8 0.00 0.00 0.00 37 1096.1
20260503220659 15 315 6.4 9.7 0.00 0.00 0.00 36 1096.2
20260503220155 15 19 4.8 14.5 0.00 0.00 0.00 37 1096.2
20260503215653 15 188 3.2 11.3 0.00 0.00 0.00 35 1096.2
20260503215149 15 9 1.6 14.5 0.00 0.00 0.00 36 1096.3
20260503214649 15 269 3.2 6.4 0.00 0.00 0.00 35 1096.2
20260503214144 15 9 8.0 12.9 0.00 0.00 0.00 33 1096.2
20260503213643 15 119 14.5 20.9 0.00 0.00 0.00 34 1095.9
20260503213139 15 325 6.4 9.7 0.00 0.00 0.00 36 1096.0
20260503212636 15 303 1.6 14.5 0.00 0.00 0.00 36 1095.8
20260503212134 15 295 9.7 12.9 0.00 0.00 0.00 35 1096.2
20260503211633 15 206 8.0 17.7 0.00 0.00 0.00 34 1096.0
20260503211133 15 315 12.9 20.9 0.00 0.00 0.00 34 1096.1
20260503210629 15 29 1.6 12.9 0.00 0.00 0.00 36 1096.0
20260503210126 15 260 12.9 16.1 0.00 0.00 0.00 34 1096.1
20260503205622 15 253 12.9 16.1 0.00 0.00 0.00 35 1096.2
20260503205118 15 287 9.7 16.1 0.00 0.00 0.00 35 1096.3
20260503204615 15 234 9.7 12.9 0.00 0.00 0.00 36 1096.3
20260503204113 15 295 8.0 16.1 0.00 0.00 0.00 34 1096.3
20260503203610 15 314 4.8 11.3 0.00 0.00 0.00 35 1096.7
20260503203107 15 233 8.0 9.7 0.00 0.00 0.00 36 1096.4
20260503202604 15 317 11.3 17.7 0.00 0.00 0.00 34 1096.4
20260503202102 15 227 8.0 17.7 0.00 0.00 0.00 35 1096.8
20260503201600 15 161 9.7 16.1 0.00 0.00 0.00 36 1096.7
20260503201057 14 356 6.4 11.3 0.00 0.00 0.00 36 1096.7
20260503200553 14 69 3.2 12.9 0.00 0.00 0.00 37 1096.9
20260503200050 15 226 14.5 17.7 0.00 0.00 0.00 35 1096.8
20260503195547 15 260 9.7 16.1 0.00 0.00 0.00 34 1096.9
20260503195044 14 294 8.0 27.4 0.00 0.00 0.00 36 1097.2
20260503194541 14 332 1.6 16.1 0.00 0.00 0.00 35 1097.3
20260503194041 15 306 6.4 20.9 0.00 0.00 0.00 35 1097.2
20260503193538 14 267 9.7 24.1 0.00 0.00 0.00 34 1097.3
20260503193033 13 357 3.2 11.3 0.00 0.00 0.00 35 1097.3
20260503192530 15 222 12.9 20.9 0.00 0.00 0.00 34 1097.4
20260503192025 14 332 8.0 16.1 0.00 0.00 0.00 37 1097.5
20260503191522 14 274 12.9 16.1 0.00 0.00 0.00 34 1097.5
20260503191019 14 153 1.6 9.7 0.00 0.00 0.00 38 1097.8
20260503190516 15 233 12.9 22.5 0.00 0.00 0.00 36 1097.8
20260503190014 14 152 9.7 16.1 0.00 0.00 0.00 35 1097.6
20260503185510 15 255 11.3 24.1 0.00 0.00 0.00 36 1097.9
20260503185009 14 249 6.4 20.9 0.00 0.00 0.00 37 1097.9
20260503184506 13 321 11.3 29.0 0.00 0.00 0.00 37 1098.1
20260503184002 13 332 12.9 17.7 0.00 0.00 0.00 37 1098.4
20260503183459 13 272 14.5 22.5 0.00 0.00 0.00 37 1098.1
20260503182956 13 184 11.3 16.1 0.00 0.00 0.00 39 1098.2
20260503182455 13 293 9.7 17.7 0.00 0.00 0.00 39 1098.4
20260503181952 13 268 1.6 11.3 0.00 0.00 0.00 39 1098.4
20260503181449 13 146 16.1 22.5 0.00 0.00 0.00 38 1098.3
20260503180945 14 337 1.6 14.5 0.00 0.00 0.00 36 1098.3
20260503180443 14 179 6.4 12.9 0.00 0.00 0.00 37 1098.5
20260503175940 13 166 4.8 6.4 0.00 0.00 0.00 37 1098.3
20260503175438 13 282 22.5 33.8 0.00 0.00 0.00 36 1098.7
20260503174933 13 228 4.8 14.5 0.00 0.00 0.00 37 1098.7
20260503174432 13 278 8.0 12.9 0.00 0.00 0.00 40 1098.6
20260503173932 13 207 11.3 14.5 0.00 0.00 0.00 37 1098.7
20260503173428 13 197 8.0 11.3 0.00 0.00 0.00 37 1099.0
20260503172925 12 284 6.4 9.7 0.00 0.00 0.00 39 1099.0
20260503172422 12 207 20.9 24.1 0.00 0.00 0.00 36 1099.0
20260503171918 13 181 4.8 20.9 0.00 0.00 0.00 40 1099.1
20260503171415 12 332 19.3 25.7 0.00 0.00 0.00 36 1099.0
20260503170913 13 257 20.9 25.7 0.00 0.00 0.00 36 1099.2
20260503170409 12 95 6.4 14.5 0.00 0.00 0.00 37 1099.3
20260503150801 10 225 4.8 12.9 0.00 0.00 0.00 40 1100.1
20260503150257 10 295 6.4 11.3 0.00 0.00 0.00 41 1100.0
20260503140222 8 281 6.4 12.9 0.00 0.00 0.00 52 1100.4
20260503131151 6 285 11.3 16.1 0.00 0.00 0.00 62 1100.8
20260503130648 6 5 4.8 12.9 0.00 0.00 0.00 65 1100.9
20260503130146 6 277 8.0 12.9 0.00 0.00 0.00 65 1100.8
20260503120112 2 36 0.0 1.6 0.00 0.00 0.00 96 1100.4
20260503110539 0 27 0.0 0.0 0.00 0.00 0.00 96 1100.0
20260503090426 0 36 0.0 0.0 0.00 0.00 0.00 97 1099.3
20260503081352 0 17 0.0 0.0 0.00 0.00 0.00 96 1099.1
20260503080849 0 17 0.0 0.0 0.00 0.00 0.00 95 1099.5
20260503080346 0 12 0.0 0.0 0.00 0.00 0.00 95 1099.3
20260503072823 0 19 0.0 0.0 0.00 0.00 0.00 96 1099.1
20260503072319 0 19 0.0 0.0 0.00 0.00 0.00 96 1099.0
20260503071815 0 19 0.0 0.0 0.00 0.00 0.00 96 1099.2
20260503071313 0 19 0.0 0.0 0.00 0.00 0.00 96 1099.1
20260503070809 0 18 0.0 0.0 0.00 0.00 0.00 96 1098.9
20260503070307 0 18 0.0 0.0 0.00 0.00 0.00 96 1099.0
20260503060238 0 18 0.0 0.0 0.00 0.00 0.00 96 1099.1
20260503054725 0 17 0.0 0.0 0.00 0.00 0.00 96 1099.2
20260503054222 0 18 0.0 0.0 0.00 0.00 0.00 96 1099.2
20260503053720 0 21 0.0 0.0 0.00 0.00 0.00 95 1099.3
20260503053219 0 21 0.0 0.0 0.00 0.00 0.00 95 1099.3
20260503052714 0 21 0.0 0.0 0.00 0.00 0.00 95 1099.5
20260503052211 0 21 0.0 0.0 0.00 0.00 0.00 95 1099.3
20260503051706 0 20 0.0 1.6 0.00 0.00 0.00 95 1099.3
20260503051204 0 22 0.0 0.0 0.00 0.00 0.00 95 1099.3
20260503050700 0 20 0.0 0.0 0.00 0.00 0.00 95 1099.3
20260503050157 0 19 0.0 0.0 0.00 0.00 0.00 95 1099.4
20260503045655 0 10 0.0 1.6 0.00 0.00 0.00 95 1099.6
20260503045152 0 21 0.0 0.0 0.00 0.00 0.00 95 1099.3
20260503044648 0 20 0.0 0.0 0.00 0.00 0.00 95 1099.7
20260503044146 0 20 0.0 0.0 0.00 0.00 0.00 95 1099.6
20260503043642 0 20 0.0 0.0 0.00 0.00 0.00 94 1099.5
20260503043139 0 20 0.0 0.0 0.00 0.00 0.00 94 1099.4
20260503042636 1 0 1.6 1.6 0.00 0.00 0.00 95 1099.7
20260503042132 0 19 0.0 0.0 0.00 0.00 0.00 96 1099.5
20260503041629 0 12 0.0 0.0 0.00 0.00 0.00 95 1099.6
20260503041126 0 20 0.0 0.0 0.00 0.00 0.00 94 1099.6
20260503040624 0 15 0.0 0.0 0.00 0.00 0.00 94 1099.7
20260503040121 0 17 0.0 0.0 0.00 0.05 0.05 94 1099.7
20260503035617 0 12 0.0 0.0 0.00 0.05 0.05 94 1099.4
20260503035115 0 16 0.0 0.0 0.00 0.05 0.05 94 1099.6
20260503034612 0 18 0.0 1.6 0.00 0.05 0.05 93 1099.8
20260503034109 0 7 1.6 1.6 0.00 0.05 0.05 93 1099.6
20260503033607 0 7 0.0 1.6 0.00 0.05 0.05 93 1099.6
20260503033104 0 8 0.0 0.0 0.00 0.05 0.05 92 1099.6
20260503032602 0 358 1.6 1.6 0.00 0.05 0.05 92 1099.7
20260503032100 0 14 1.6 1.6 0.00 0.05 0.05 91 1099.6
20260503031558 0 12 0.0 1.6 0.00 0.05 0.05 90 1099.6